Weather in Merlo

Argentina     34°40′37″S   58°42′53″W
temp.,
°C
wind,
m/s
gust,
m/s
humid.,
%
clouds,
%
prec.,
mm/h
press.,
hPa
HPBL,
m
3 march, wed
wed300:00+25ese48710 0.2 1015546
03:00+25ene487323 0.2 1015524
06:00+23ene3780100 0.0 1015511
09:00+25ene4772100 0.0 1016716
12:00+28e4655100 0.0 10151198
15:00+31ene4645100 0.0 10141586
18:00+30e455182 0.0 10121425
21:00+26ese496691 0.0 1014641
4 march, thu
thu400:00+25e497184 0.0 1014761
03:00+24ene488063 0.0 1013644
06:00+24ene3678100 0.1 1013557
09:00+25ene357394 0.1 1013640
12:00+28ene225795 0.0 10121044
15:00+30sse335192 0.1 10101352
18:00+29sse455440 0.2 10091310
21:00+26ese356524 0.3 1010546
5 march, fri
fri500:00+24ese35710 0.0 1011446
03:00+23sse23781 0.0 1010221
06:00+21s37886 0.0 1010309
09:00+22sse477712 0.0 1011479
12:00+27s455919 0.0 10111034
15:00+30s363414 0.0 10092118
18:00+30sse46270 0.0 10071536
21:00+25ene36600 0.0 1009413
6 march, sat
sat600:00+22e47760 0.0 1010571
03:00+21e357218 0.0 1010598
06:00+21ese23741 0.0 1011330
09:00+24ene12621 0.0 1012604
12:00+31n01330 0.0 10111428
15:00+32se22250 0.0 10091723
18:00+30e22300 0.0 1009957
21:00+26ene484619 0.0 1010321
7 march, sun
sun700:00+24ne375370 0.0 1011358
03:00+23ne374974 0.0 1010264
06:00+22n255477 0.0 1011262
09:00+25n354338 0.0 1013356
12:00+31nnw23260 0.0 1011900
15:00+35nne22190 0.0 10101487
18:00+34ene332230 0.0 1008771
21:00+29ne482721 0.0 1008288